Regional Weather Roundup
Issued by NWS Charleston, SC

Current Version | Previous Version | Graphics & Text | Print | Product List | Glossary On
Versions: 1 2 3 4 5 6 7 8 9 10 11 12 13 14 15 16 17 18 19 20 21 22 23 24 25 26 27 28 29 30 31 32 33 34 35 36 37 38 39 40 41 42 43 44 45 46 47 48 49 50
000 ASUS42 KCHS 240225 RWRCHS REGIONAL WEATHER ROUNDUP NATIONAL WEATHER SERVICE CHARLESTON SC 1000 PM EDT THU OCT 23 2014 NOTE: "FAIR" INDICATES FEW OR NO CLOUDS BELOW 12,000 FEET WITH NO SIGNIFICANT WEATHER AND/OR OBSTRUCTIONS TO VISIBILITY. NOT ALL STATIONS ARE QUALITY CONTROLLED BY THE NATIONAL WEATHER SERVICE. USE DATA WITH CAUTION...ESPECIALLY DEWPOINT OBSERVATIONS. SCZ027-030-031-034>040-042>050-240300- ...SOUTH CAROLINA... CITY SKY/WX TMP DP RH WIND PRES REMARKS N CHARLESTON CLEAR 53 48 83 CALM 30.03S WATERFRONT PRK N/A 61 N/A N/A W3 N/A FORT JOHNSON NOT AVBL JOHNS ISLAND CLEAR 52 48 87 CALM 30.05R PINOPOLIS NOT AVBL MONCKS CORNER FAIR 50 50 100 CALM 30.03R SUMMERVILLE FAIR 50 50 100 CALM 30.04R BEAUFORT MCAS CLEAR 53 49 86 SW6 30.05R BEAUFORT ARPT FAIR 54 52 94 CALM 30.05R HILTON HEAD IS N/A 52 52 100 CALM 30.07R GEORGETOWN NOT AVBL WALTERBORO CLEAR 50 N/A N/A CALM 30.06R ORANGEBURG PTCLDY 51 47 86 CALM 30.04R BARNWELL FAIR 48 45 87 CALM 30.05S AIKEN FAIR 50 45 81 CALM 30.08S MANNING FAIR 50 N/A N/A CALM 30.03S KINGSTREE NOT AVBL COLUMBIA PTCLDY 51 46 83 W7 30.03R SUMTER CLEAR 51 45 79 SW3 30.02R FLORENCE CLEAR 51 44 77 CALM 30.02R MYRTLE BEACH CLEAR 54 46 76 W6 30.02R N MYRTLE BEACH CLEAR 53 49 86 W3 30.01R $$ GAZ063-065-086>088-099>101-113>116-118-119-134-136>141-150-240300- ...GEORGIA... CITY SKY/WX TMP DP RH WIND PRES REMARKS SAVANNAH ARPT PTCLDY 55 48 77 CALM 30.06R HUNTER AAF CLEAR 53 49 86 CALM 30.04R FORT STEWART CLEAR 50 46 86 NW2 30.04R STATESBORO NOT AVBL SYLVANIA CLEAR 55 53 94 CALM 30.06R CLAXTON FAIR 50 50 100 CALM 30.06R THOMSON CLEAR 50 50 100 CALM 30.11R AUGUSTA-BUSH PTCLDY 46 41 82 CALM 30.06R AUGUSTA-DANIEL PTCLDY 61 45 55 CALM 30.06R SWAINSBORO FAIR 50 46 87 MISG 30.06R VIDALIA CLEAR 54 46 76 CALM 30.06R ALMA CLEAR 48 46 93 CALM 30.05R WAYCROSS CLEAR 54 52 93 CALM 30.05S JESUP FAIR 50 48 93 CALM 30.07R BRUNSWICK CLEAR 52 50 93 CALM 30.06S SAINT SIMONS CLEAR 56 51 84 CALM 30.05R $$ SCZ027-028-034-036>038-045-046-048>050-GAZ119-141-240300- ...LAKE AND SUPPLEMENTAL COASTAL OBSERVATIONS... STATION/POSITION TIME TEMP WIND PRES WAVE SWELL AIR SEA DIR/SP/G HT/PER HT/PER/DIR (UTC) (F) (DEG/KT/KT) (MB) (FT/S) (FT/S/D) UPR LAKE MARION NOT AVBL WINYAH BAY 0200 58 290/ 3 1016.0S LAKE MURRAY 0100 58 CALM / 1 1016.3S ACE BASIN NERRS 0200 52 CALM 1017.0S FORT PULASKI 0200 61 140/ 1/ 2 1017.9R SAPELO ISLAND NOT AVBL $$ ANZ835-935-AMZ111-154-330-350-352-354-374-450-454-472-240300- ...C-MAN AND BUOY OBSERVATIONS... STATION/POSITION TIME TEMP WIND PRES WAVE SWELL AIR SEA DIR/SP/G HT/PER HT/PER/DIR (UTC) (F) (DEG/KT/KT) (MB) (FT/S) (FT/S/D) FOLLY BEACH CMAN 0200 62 240/ 3/ 3 1017.5R BUOY 41004 0200 68 78 300/ 12/ 16 1016.1R 3/12 2/12 BUOY 41008 0200 68 75 350/ 8/ 10 1017.4R 2/10 2/120/10 5E ST. MARYS GA 0200 76 N/A 2/ 5 FRYING PAN BUOY 0200 67 74 290/ 16/ 19 1016.3R 4/11 2/340/11 BUOY 41025 0200 65 290/ 17/ 19 1013.5R 5/ 5 2/ 40/ 8 CAPE LOOKOUT NC 0200 66 290/ 12/ 15 1014.7R BUOY 41002 0106 70 78 290/ 12/ 16 1015.4 7/11 7/11 BUOY 41010 0200 74 81 30/ 10/ 12 1015.7R 3/ 9 3/ 60/ 9 BUOY 41012 NOT AVBL ST AUGUSTINE FL 0200 68 10/ 8/ 9 1018.1R CAPERS NEARSHORE NOT AVBL FRIPP NEARSHORE NOT AVBL $$

USA.gov is the U.S. government's official web portal to all federal, state and local government web resources and services.